Weather History for Cody, WY

Change the Weather History Date:

Wednesday, March 13, 2013

  Actual Average Record
Temperature  
Mean Temperature 54 °F -  
Max Temperature 60 °F 50 °F 70 °F (1934)
Min Temperature 48 °F 24 °F -4 °F (1944)
Degree Days  
Heating Degree Days 11    
Growing Degree Days 4 (Base 50)    
Moisture  
Dew Point 25 °F    
Average Humidity 35    
Maximum Humidity 46    
Minimum Humidity 23    
Precipitation  
Precipitation 0.00 in - - ()
Sea Level Pressure  
Sea Level Pressure 30.12 in    
Wind  
Wind Speed 15 mph (West)    
Max Wind Speed 23 mph    
Max Gust Speed 37 mph    
Visibility 10 miles    
Events      
Averages and records for this station are not official NWS values.
T = Trace of Precipitation, MM = Missing Value Source: NWS Daily Summary

Daily Weather History Graph

Daily Weather History Graph

Search for Another Location

Airport:

Trip Planner

Search our weather history database for the weather conditions in past years. The results will help you decide how hot, cold, wet, or windy it might be!

Date:

Astronomy

Mar. 13, 2013 Rise Set
Actual Time 7:31 AM MDT 7:20 PM MDT
Civil Twilight 7:02 AM MDT 7:49 PM MDT
Nautical Twilight 6:28 AM MDT 8:22 PM MDT
Astronomical Twilight 5:54 AM MDT 8:57 PM MDT
Moon 8:06 AM MDT (3/13) 9:47 PM MDT (3/13)
Length of Visible Light 12h 46m
Length of Day
11h 48m
Waxing Crescent, 4% of the Moon is Illuminated
Mar 13
Waxing Crescent
Mar 19
First Quarter
Mar 27
Full
Apr 2
Last Quarter
Apr 10
New

Hourly Weather History & Observations

Time (MDT) Temp. Dew Point Humidity Pressure Visibility Wind Dir Wind Speed Gust Speed Precip Events Conditions
12:15 AM 48.2 °F 26.6 °F 43% 30.07 in 10.0 mi WSW 18.4 mph 25.3 mph N/A   Clear
12:35 AM 48.2 °F 26.6 °F 43% 30.07 in 10.0 mi WSW 17.3 mph 32.2 mph N/A   Partly Cloudy
12:55 AM 48.2 °F 28.4 °F 46% 30.07 in 10.0 mi WSW 16.1 mph 25.3 mph N/A   Scattered Clouds
1:35 AM 48.2 °F 28.4 °F 46% 30.08 in 10.0 mi West 19.6 mph 34.5 mph N/A   Scattered Clouds
2:15 AM 48.2 °F 28.4 °F 46% 30.08 in 10.0 mi WSW 23.0 mph 29.9 mph N/A   Scattered Clouds
2:55 AM 48.2 °F 28.4 °F 46% 30.08 in 10.0 mi WSW 21.9 mph 34.5 mph N/A   Clear
3:15 AM 48.2 °F 28.4 °F 46% 30.09 in 10.0 mi WSW 15.0 mph 29.9 mph N/A   Partly Cloudy
3:35 AM 48.2 °F 28.4 °F 46% 30.09 in 10.0 mi WSW 21.9 mph 33.4 mph N/A   Mostly Cloudy
3:55 AM 48.2 °F 26.6 °F 43% 30.08 in 10.0 mi WSW 17.3 mph 28.8 mph N/A   Scattered Clouds
4:15 AM 48.2 °F 26.6 °F 43% 30.08 in 10.0 mi West 19.6 mph 34.5 mph N/A   Clear
4:35 AM 48.2 °F 26.6 °F 43% 30.08 in 10.0 mi West 19.6 mph 32.2 mph N/A   Clear
4:55 AM 48.2 °F 26.6 °F 43% 30.09 in 10.0 mi West 19.6 mph 32.2 mph N/A   Clear
5:15 AM 48.2 °F 26.6 °F 43% 30.09 in 10.0 mi West 16.1 mph 24.2 mph N/A   Clear
5:35 AM 48.2 °F 26.6 °F 43% 30.10 in 10.0 mi West 12.7 mph 23.0 mph N/A   Clear
5:55 AM 48.2 °F 26.6 °F 43% 30.10 in 10.0 mi WNW 13.8 mph 21.9 mph N/A   Clear
6:15 AM 48.2 °F 26.6 °F 43% 30.11 in 10.0 mi West 11.5 mph 24.2 mph N/A   Clear
6:35 AM 48.2 °F 26.6 °F 43% 30.10 in 10.0 mi West 10.4 mph 23.0 mph N/A   Clear
6:55 AM 48.2 °F 26.6 °F 43% 30.11 in 10.0 mi West 9.2 mph 19.6 mph N/A   Clear
7:15 AM 48.2 °F 26.6 °F 43% 30.11 in 10.0 mi NW 9.2 mph - N/A   Clear
7:35 AM 48.2 °F 26.6 °F 43% 30.12 in 10.0 mi WNW 10.4 mph 24.2 mph N/A   Clear
7:55 AM 48.2 °F 26.6 °F 43% 30.12 in 10.0 mi West 11.5 mph 21.9 mph N/A   Clear
8:15 AM 48.2 °F 26.6 °F 43% 30.12 in 10.0 mi WNW 13.8 mph 27.6 mph N/A   Clear
8:35 AM 50.0 °F 26.6 °F 40% 30.13 in 10.0 mi WNW 15.0 mph 27.6 mph N/A   Clear
8:55 AM 50.0 °F 26.6 °F 40% 30.13 in 10.0 mi NW 9.2 mph - N/A   Clear
9:15 AM 50.0 °F 26.6 °F 40% 30.14 in 10.0 mi WNW 6.9 mph - N/A   Clear
9:35 AM 51.8 °F 26.6 °F 38% 30.14 in 10.0 mi West 11.5 mph 19.6 mph N/A   Clear
9:55 AM 51.8 °F 26.6 °F 38% 30.15 in 10.0 mi WSW 13.8 mph - N/A   Partly Cloudy
10:15 AM 51.8 °F 24.8 °F 35% 30.15 in 10.0 mi West 11.5 mph 16.1 mph N/A   Mostly Cloudy
10:35 AM 51.8 °F 26.6 °F 38% 30.16 in 10.0 mi West 11.5 mph 18.4 mph N/A   Overcast
10:55 AM 53.6 °F 24.8 °F 33% 30.16 in 10.0 mi WSW 13.8 mph 21.9 mph N/A   Overcast
11:15 AM 53.6 °F 24.8 °F 33% 30.16 in 10.0 mi West 9.2 mph 17.3 mph N/A   Mostly Cloudy
11:35 AM 55.4 °F 26.6 °F 33% 30.16 in 10.0 mi West 10.4 mph - N/A   Partly Cloudy
11:55 AM 55.4 °F 26.6 °F 33% 30.16 in 10.0 mi West 8.1 mph - N/A   Partly Cloudy
12:15 PM 55.4 °F 26.6 °F 33% 30.16 in 10.0 mi West 4.6 mph - N/A   Partly Cloudy
12:35 PM 57.2 °F 24.8 °F 29% 30.15 in 10.0 mi NW 3.5 mph - N/A   Clear
12:55 PM 57.2 °F 24.8 °F 29% 30.14 in 10.0 mi WNW 4.6 mph - N/A   Clear
1:15 PM 57.2 °F 26.6 °F 31% 30.14 in 10.0 mi WSW 3.5 mph - N/A   Clear
1:35 PM 59.0 °F 26.6 °F 29% 30.13 in 10.0 mi West 8.1 mph 21.9 mph N/A   Partly Cloudy
1:55 PM 59.0 °F 24.8 °F 27% 30.13 in 10.0 mi WSW 13.8 mph 21.9 mph N/A   Clear
2:15 PM 57.2 °F 24.8 °F 29% 30.13 in 10.0 mi West 8.1 mph 26.5 mph N/A   Partly Cloudy
2:35 PM 59.0 °F 24.8 °F 27% 30.13 in 10.0 mi WSW 16.1 mph 23.0 mph N/A   Partly Cloudy
3:15 PM 60.8 °F 24.8 °F 25% 30.11 in 10.0 mi West 11.5 mph 20.7 mph N/A   Clear
3:35 PM 60.8 °F 24.8 °F 25% 30.11 in 10.0 mi West 16.1 mph 25.3 mph N/A   Clear
3:55 PM 60.8 °F 24.8 °F 25% 30.11 in 10.0 mi West 15.0 mph 20.7 mph N/A   Clear
4:35 PM 59.0 °F 23.0 °F 25% 30.11 in 10.0 mi West 10.4 mph 18.4 mph N/A   Clear
4:55 PM 59.0 °F 21.2 °F 23% 30.12 in 10.0 mi WSW 11.5 mph - N/A   Clear
5:15 PM 59.0 °F 21.2 °F 23% 30.12 in 10.0 mi WSW 15.0 mph 19.6 mph N/A   Partly Cloudy
5:35 PM 59.0 °F 21.2 °F 23% 30.12 in 10.0 mi WSW 11.5 mph - N/A   Scattered Clouds
5:55 PM 57.2 °F 23.0 °F 27% 30.13 in 10.0 mi West 13.8 mph 26.5 mph N/A   Scattered Clouds
6:15 PM 57.2 °F 23.0 °F 27% 30.14 in 10.0 mi WSW 16.1 mph 23.0 mph N/A   Overcast
6:35 PM 57.2 °F 23.0 °F 27% 30.13 in 10.0 mi West 21.9 mph 29.9 mph N/A   Mostly Cloudy
6:55 PM 55.4 °F 24.8 °F 31% 30.14 in 10.0 mi West 18.4 mph 26.5 mph N/A   Partly Cloudy
7:15 PM 55.4 °F 24.8 °F 31% 30.15 in 10.0 mi West 16.1 mph 33.4 mph N/A   Partly Cloudy
7:35 PM 55.4 °F 24.8 °F 31% 30.16 in 10.0 mi WSW 16.1 mph 31.1 mph N/A   Partly Cloudy
7:55 PM 55.4 °F 24.8 °F 31% 30.15 in 10.0 mi WSW 17.3 mph 32.2 mph N/A   Clear
8:15 PM 55.4 °F 24.8 °F 31% 30.15 in 10.0 mi West 20.7 mph 36.8 mph N/A   Clear
8:55 PM 53.6 °F 23.0 °F 30% 30.15 in 10.0 mi West 20.7 mph 29.9 mph N/A   Clear
9:15 PM 53.6 °F 24.8 °F 33% 30.14 in 10.0 mi West 18.4 mph 31.1 mph N/A   Clear
9:35 PM 53.6 °F 23.0 °F 30% 30.15 in 10.0 mi West 10.4 mph 27.6 mph N/A   Clear
9:55 PM 53.6 °F 23.0 °F 30% 30.16 in 10.0 mi WNW 10.4 mph 24.2 mph N/A   Clear
10:15 PM 53.6 °F 21.2 °F 28% 30.15 in 10.0 mi WSW 19.6 mph 28.8 mph N/A   Clear
10:35 PM 55.4 °F 23.0 °F 29% 30.15 in 10.0 mi WNW 12.7 mph 24.2 mph N/A   Clear
11:15 PM 55.4 °F 24.8 °F 31% 30.16 in 10.0 mi West 17.3 mph 23.0 mph N/A   Clear
11:35 PM 55.4 °F 24.8 °F 31% 30.15 in 10.0 mi West 13.8 mph 24.2 mph N/A   Clear
11:55 PM 55.4 °F 24.8 °F 31% 30.15 in 10.0 mi WSW 16.1 mph 23.0 mph N/A   Partly Cloudy